Location: Bad Rothenbrunn
(47.2167°N, 11.2167°E)
Time: 04:22:38
(UTC+00:00)

USA 306 - Pass Details

Date: 03 March 2021
Orbit: 564 x 577 km, 54.0° (Epoch: 22 April)

Event Time Altitude Azimuth Distance (km) Brightness Sun altitude
Rises 18:19:20 0° 281° (W) 2,787 8.4 -13.7°
Reaches altitude 10° 18:21:46 10° 291° (WNW) 1,886 6.8 -14.1°
Maximum altitude 18:25:40 33° 356° (N) 983 4.2 -14.7°
Enters shadow 18:28:20 17° 52° (NE) 1,475 4.6 -15.2°
